RH
88 87 88 85 83 84 89 94 96 99 101 100 100 100 100 100 100 100 100 100 100 100 99 98 96 94 92 91 91 92 95 97 98 100 100 100 100 100 100 100 100 100 100 100 100 99 98 99 98 97 98 98 98 98 97 95 93 89 86 79 66 54 48 50 51 49 48 47 44 46 46 45 44 40 37 35 32 30 27 25 24 22 20 19 18
86 86 88 87 86 86 88 90 92 94 97 98 100 99 100 100 100 100 100 100 100 100 100 100 100 100 98 96 95 94 94 95 97 99 99 99 100 100 100 100 100 100 100 100 100 100 100 100 100 100 100 100 100 100 100 99 99 96 94 92 86 74 63 62 63 60 59 58 55 53 52 50 49 46 42 39 36 35 34 32 31 29 28 27 27
82 80 81 81 83 85 86 86 86 87 89 92 96 98 98 99 100 100 100 100 100 100 100 100 100 100 100 99 100 99 99 99 99 100 100 100 100 100 100 100 100 100 100 100 100 100 100 100 100 100 100 100 100 100 100 100 100 100 98 98 97 91 85 82 80 75 71 68 65 62 60 57 55 52 48 44 41 39 38 39 38 37 39 39 39
75 75 75 75 77 78 79 80 80 81 82 84 88 92 95 96 97 99 100 100 100 100 100 100 100 100 99 99 99 99 99 99 99 100 99 100 100 100 101 100 100 100 100 100 100 100 100 100 100 100 100 100 100 100 101 100 100 100 100 100 99 99 99 97 95 92 88 82 78 74 70 67 64 61 58 53 49 46 43 42 42 41 42 42 43
76 77 78 78 79 78 78 78 78 78 79 80 81 83 87 89 90 95 98 98 100 101 100 100 100 100 100 100 100 99 99 99 98 97 96 96 96 96 98 98 99 100 100 100 100 100 100 100 100 100 100 100 100 100 100 100 100 100 100 100 100 100 100 100 100 100 98 95 93 90 86 83 81 79 74 68 63 58 52 48 46 45 43 43 43
79 80 80 81 82 82 82 82 81 80 79 80 81 80 81 82 84 89 93 94 97 99 100 100 100 100 100 100 100 100 100 100 99 98 97 95 94 92 91 93 94 97 98 100 100 100 100 100 100 100 100 100 100 100 100 100 100 100 100 100 100 100 100 100 100 100 100 100 99 99 98 96 96 94 91 88 83 75 67 59 53 49 47 46 45
73 74 74 75 76 77 80 81 82 83 82 82 82 81 81 80 80 82 84 88 92 94 95 97 99 100 100 100 100 100 100 100 100 100 100 99 98 95 93 90 90 92 94 97 98 99 100 100 100 100 100 100 100 100 100 100 100 100 100 100 100 100 100 100 100 100 100 100 100 100 100 100 100 100 98 98 95 90 82 74 67 61 56 51 49
66 67 68 69 69 70 73 76 80 82 82 82 81 81 81 80 80 80 79 83 87 89 92 94 95 97 99 100 100 100 100 100 100 100 100 100 100 99 98 94 91 90 90 94 97 99 99 100 100 100 100 100 100 100 100 100 100 100 100 100 100 100 100 100 100 100 100 100 100 100 100 100 100 100 99 100 99 97 93 88 82 76 70 62 56
65 67 66 67 68 70 72 75 78 79 79 80 80 79 79 78 79 79 78 80 82 83 87 90 92 95 96 98 99 100 100 100 100 100 100 100 100 100 100 99 96 92 89 90 93 96 98 99 100 100 100 100 100 100 100 100 100 100 100 100 100 100 100 100 100 100 100 100 100 100 100 100 100 99 100 100 99 98 98 96 93 86 79 72 65
63 65 66 69 72 74 74 76 80 80 80 80 79 79 78 77 77 77 77 78 78 79 81 84 88 91 92 94 97 100 101 100 100 100 100 100 100 100 100 100 100 98 93 90 89 91 95 97 99 100 100 100 100 100 100 100 100 100 100 100 100 100 100 100 100 100 100 100 100 100 100 100 100 100 100 99 99 100 100 100 98 94 87 78 71
63 66 68 72 75 75 74 77 81 82 82 81 79 79 78 76 77 77 77 78 78 78 79 80 83 86 88 90 93 97 100 100 100 100 100 100 100 100 100 100 100 100 97 94 91 88 91 96 99 100 100 100 100 100 100 100 100 100 100 100 100 100 100 100 100 100 100 100 100 100 100 100 100 100 100 100 100 100 100 100 100 99 94 85 77
64 67 70 72 74 76 77 79 81 81 80 80 78 79 78 78 78 78 78 79 78 78 79 80 83 87 90 92 91 92 95 99 101 100 100 100 100 100 100 100 100 100 100 99 96 91 89 92 96 100 100 100 100 100 100 100 100 100 100 100 100 100 100 100 100 100 100 100 100 100 100 100 100 100 100 100 100 100 100 100 100 100 97 90 83
65 66 69 73 75 78 80 81 80 80 79 79 79 80 79 79 80 79 79 80 79 80 80 81 85 90 94 96 95 93 94 97 100 100 100 100 100 100 100 100 100 100 100 100 99 96 91 89 92 96 99 100 100 100 100 100 100 100 100 100 100 100 100 100 100 100 100 100 100 100 100 100 100 100 100 100 100 100 100 100 100 100 98 92 86
64 67 72 77 80 82 82 81 80 79 79 79 80 80 80 80 80 80 80 81 82 83 83 85 90 95 98 98 97 95 93 94 94 94 96 98 99 101 100 100 100 100 100 100 100 99 95 91 90 92 97 100 100 100 100 100 100 100 100 100 100 100 100 100 100 100 100 100 100 99 100 100 100 100 100 100 100 100 100 100 100 99 96 92 88
65 73 77 81 83 83 81 80 78 78 78 79 80 80 81 81 81 82 83 85 87 90 91 93 96 99 99 99 98 95 92 91 90 89 90 91 95 99 100 100 100 100 100 100 99 100 98 95 93 93 96 99 99 100 101 100 100 100 100 100 100 100 100 100 100 100 100 100 100 100 100 100 100 100 100 100 100 100 100 100 99 98 97 94 91
73 80 82 84 84 81 80 78 77 77 78 79 80 80 80 81 81 83 84 85 89 91 95 98 100 100 100 100 99 95 91 91 91 91 90 90 92 97 99 100 101 100 100 100 100 100 100 98 98 98 98 99 99 100 100 100 100 100 100 100 100 100 100 100 100 100 100 100 100 100 100 100 100 100 100 100 100 100 100 100 98 97 99 98 96
80 83 84 85 82 79 79 77 77 78 78 79 80 80 80 81 81 82 83 83 85 87 91 95 98 98 98 98 97 93 90 91 92 93 95 95 95 97 99 100 100 100 100 100 100 100 100 100 100 100 100 100 100 100 100 100 100 100 100 100 100 100 100 100 101 101 100 101 100 100 100 100 100 100 100 100 100 99 101 101 97 95 98 99 97
82 85 85 83 81 79 78 77 78 78 78 79 81 80 81 81 81 82 82 82 83 85 87 90 91 92 93 94 94 92 91 92 93 94 97 99 100 99 99 100 100 99 99 100 100 100 100 100 100 100 100 100 100 100 100 100 100 100 100 100 100 100 100 100 101 100 100 100 101 100 100 100 100 100 100 100 100 100 100 100 96 95 96 96 94
83 84 83 81 80 78 77 77 78 78 78 80 81 80 80 81 81 81 82 82 83 84 86 87 87 88 89 91 91 92 91 91 93 95 97 99 101 100 100 100 100 100 100 100 100 100 100 100 100 100 100 100 100 100 100 100 100 100 100 100 100 100 100 101 100 99 99 100 101 101 100 100 100 100 100 100 100 100 100 100 99 98 97 96 97
81 82 81 81 80 78 77 77 78 78 79 80 81 81 81 80 81 80 80 80 81 82 85 86 86 86 87 89 90 91 91 90 92 93 94 96 99 101 100 100 100 100 100 100 100 100 100 100 100 100 100 100 100 100 100 100 100 100 100 100 100 100 101 101 100 99 100 101 101 101 101 100 100 100 100 100 100 100 101 100 99 99 100 100 100
77 78 80 81 80 79 77 77 77 78 79 79 81 82 82 82 81 80 79 78 78 80 82 82 82 83 84 88 90 91 91 91 91 92 93 94 96 99 101 101 100 100 100 100 101 100 100 101 100 100 100 100 100 100 100 100 100 100 100 100 100 100 101 101 101 101 101 101 101 101 101 100 100 100 100 99 99 100 101 100 99 100 101 100 100
73 75 79 81 81 80 78 77 77 77 77 79 80 81 81 81 81 79 78 77 76 76 77 78 79 79 80 84 88 90 92 92 91 91 92 92 94 97 99 101 100 100 100 100 100 100 100 101 100 100 100 100 100 99 99 100 100 100 100 100 100 101 101 101 101 101 101 101 100 100 100 100 100 100 99 98 98 99 100 99 99 101 101 101 101
67 72 77 80 80 80 79 78 78 77 77 78 78 79 80 80 80 79 78 77 75 74 75 77 77 77 77 79 83 86 90 92 92 91 91 92 93 94 97 99 101 101 100 100 100 100 100 100 100 100 100 100 100 99 99 101 101 99 100 100 100 100 100 100 100 100 100 100 100 100 100 100 100 101 100 97 96 98 100 100 100 100 100 100 100
57 67 73 76 78 80 80 80 79 77 78 78 77 78 78 78 79 78 78 78 76 75 76 77 77 77 77 77 78 81 84 87 90 91 92 92 94 94 95 96 99 101 101 100 100 100 100 100 101 101 100 100 101 101 100 101 101 100 100 101 100 100 100 100 100 100 100 100 100 100 100 100 100 101 100 98 98 99 100 100 100 101 101 101 100
45 58 65 70 75 77 79 82 82 79 78 78 77 77 77 78 79 78 78 79 77 76 76 76 76 77 77 77 77 79 81 82 85 88 91 93 95 96 96 95 96 99 101 100 100 100 101 101 101 100 101 100 100 101 100 100 101 101 100 101 100 100 100 100 100 100 100 100 100 100 100 101 101 101 101 101 101 101 101 101 101 101 101 99 98
34 46 54 62 68 70 73 80 84 84 82 80 78 78 78 78 79 78 79 79 78 78 78 78 78 78 79 80 80 80 81 81 81 83 87 91 94 96 97 95 94 96 98 98 99 100 100 100 101 100 100 100 99 100 100 100 101 101 100 100 100 100 100 100 99 100 100 100 101 101 101 102 101 101 102 101 100 101 101 101 101 101 100 99 98
23 33 43 50 54 57 61 69 78 83 83 81 80 80 80 80 80 80 80 80 80 81 81 81 83 83 83 85 85 84 85 84 83 82 82 84 87 91 93 95 94 94 95 96 98 100 100 100 100 100 99 99 98 99 99 100 101 101 100 100 100 100 100 100 99 100 101 101 102 102 102 102 101 101 101 100 100 102 102 102 101 100 100 101 99
16 22 31 39 44 48 53 60 68 74 79 81 80 79 79 80 80 81 82 81 82 84 85 86 87 87 88 91 91 90 89 89 88 87 85 84 85 86 89 94 96 96 97 97 98 100 100 100 100 100 99 97 95 94 95 97 99 99 100 101 101 100 100 100 100 100 100 101 102 102 101 101 101 101 102 101 101 102 102 101 100 100 100 100 97
12 15 20 27 35 41 47 53 58 62 66 73 78 81 82 82 81 81 82 83 84 85 86 88 88 88 90 93 95 95 94 93 93 92 92 91 91 90 91 94 97 99 100 100 99 100 100 100 100 100 99 97 94 92 93 97 99 100 100 101 101 101 101 100 100 100 101 102 102 101 101 100 100 101 102 101 102 102 101 100 100 100 100 100 98
12 13 14 16 21 27 34 41 46 47 48 51 60 70 78 84 86 84 81 82 84 85 86 87 88 88 88 91 95 97 97 96 95 93 93 93 93 93 94 96 98 100 101 101 101 100 100 100 101 101 100 98 95 94 95 98 101 102 101 101 101 101 101 101 100 100 101 102 101 101 100 100 100 101 101 100 101 100 100 100 100 100 100 100 99
14 14 14 14 15 17 21 26 31 34 37 39 43 48 53 65 80 87 86 82 81 82 85 85 85 87 88 89 92 95 96 96 95 94 94 93 93 94 94 95 97 99 100 101 101 100 100 100 101 101 102 101 99 98 98 99 100 101 102 102 101 101 101 101 101 101 102 102 101 100 100 100 100 100 100 100 101 100 100 101 100 100 102 101 97
15 15 16 16 16 17 18 21 22 25 30 36 40 39 37 40 52 67 81 86 84 82 85 85 85 86 87 89 93 96 96 94 95 96 96 95 94 95 95 95 97 98 99 101 102 100 100 100 100 100 101 102 102 101 100 99 101 101 102 102 101 102 102 101 101 102 102 102 101 100 100 100 100 100 100 100 100 100 100 100 100 102 102 99 97
17 17 18 18 19 19 20 22 23 25 28 32 35 37 40 42 44 50 62 75 82 85 86 86 86 87 87 88 93 96 96 94 94 96 97 96 95 96 96 96 96 97 98 101 100 99 99 100 100 101 102 103 103 103 101 100 100 100 101 102 102 102 102 102 102 102 102 102 102 101 100 100 100 100 100 100 101 100 100 101 102 102 100 98 95
18 19 19 19 20 21 21 23 26 28 31 33 32 33 39 49 55 58 62 68 76 81 84 85 86 87 87 87 90 93 95 95 95 96 98 98 96 96 96 96 96 96 98 100 100 99 99 100 101 102 103 103 103 102 101 100 100 101 102 102 102 102 102 102 102 102 102 102 101 100 100 101 101 101 102 102 101 101 101 102 101 100 99 95 83
19 20 21 21 22 23 23 25 28 29 30 31 31 33 37 44 54 63 71 76 80 83 84 85 86 87 88 88 88 90 94 97 97 95 97 99 98 96 95 96 97 97 98 100 101 100 99 100 100 101 101 102 102 102 102 102 102 102 102 102 103 103 102 101 101 102 102 102 102 101 102 101 101 103 103 102 102 101 100 100 100 99 95 80 57
19 20 21 23 24 24 24 26 28 29 29 29 31 35 39 42 48 57 68 76 81 84 86 86 86 87 88 87 87 87 91 97 99 96 96 99 100 98 96 95 96 98 100 100 101 101 100 99 100 100 100 102 102 102 103 102 101 102 103 103 103 102 101 101 101 101 102 102 102 102 101 101 102 102 101 101 102 100 99 100 100 93 77 54 35
18 19 20 22 23 23 24 25 26 27 27 28 30 34 37 41 46 52 61 69 76 82 86 87 86 85 85 86 86 85 87 93 99 97 95 98 100 100 99 96 94 95 99 101 100 100 100 100 101 101 101 101 101 101 101 101 100 101 102 102 102 101 100 100 101 100 100 101 100 100 100 100 101 102 101 101 100 98 99 99 91 71 49 33 28
18 18 18 19 20 21 21 21 22 23 25 26 29 32 35 40 44 49 56 64 72 79 84 87 88 88 87 87 88 86 85 88 91 92 93 96 98 99 99 97 93 93 97 99 100 99 99 100 101 101 101 101 101 101 101 100 100 101 101 101 102 101 99 98 98 97 97 97 98 100 101 100 101 102 101 97 96 97 96 85 63 42 31 27 27
18 18 18 18 18 18 17 16 16 18 20 23 26 30 34 38 43 47 52 58 66 75 82 87 89 90 90 89 90 90 89 87 87 90 94 98 99 99 100 98 94 91 94 96 96 97 97 98 99 101 101 101 101 101 101 100 100 101 101 101 101 101 100 99 99 98 98 100 101 101 101 102 102 102 98 96 96 91 77 55 36 28 27 27 25
17 18 18 17 17 17 15 13 14 16 18 20 24 28 32 37 42 47 52 57 63 71 79 86 90 90 90 90 92 94 94 92 90 91 95 99 101 101 101 100 96 93 94 95 93 93 95 96 98 99 101 100 99 99 100 99 98 99 101 102 102 102 101 101 101 101 101 102 101 101 102 102 101 100 99 95 87 69 47 32 27 27 27 25 25
17 18 18 17 17 17 14 12 13 15 17 20 22 26 31 36 40 46 52 57 62 67 74 82 88 91 91 90 91 93 95 94 91 90 93 98 102 101 101 101 98 97 99 99 96 94 93 93 94 97 97 97 97 97 97 98 96 96 98 100 100 101 102 102 103 102 101 101 101 102 102 102 102 100 93 78 59 40 29 27 28 27 25 25 30
17 19 19 18 17 16 13 11 11 13 16 18 20 24 29 33 36 41 49 56 61 65 70 76 83 89 91 90 89 90 92 93 92 89 89 95 100 101 102 101 99 98 101 102 100 98 94 91 92 93 93 94 96 96 95 95 94 94 94 95 96 98 99 99 99 99 99 100 101 101 102 103 99 86 67 47 34 28 27 28 27 25 25 29 37
17 18 19 19 17 15 12 10 10 12 13 14 17 21 26 30 33 37 43 51 58 63 68 72 78 84 89 90 89 88 89 91 92 90 88 90 96 99 101 101 100 99 100 102 102 101 97 93 92 92 92 93 95 94 94 93 92 92 92 91 91 91 93 94 96 98 99 99 100 101 100 92 74 53 36 28 27 27 27 26 25 25 28 36 47
16 18 19 19 18 16 13 10 10 11 12 13 16 19 22 25 29 33 37 42 50 58 66 71 75 80 86 89 90 89 89 91 93 92 89 89 91 95 98 100 101 100 99 99 101 101 100 98 95 94 94 95 95 95 96 94 92 92 92 90 88 88 90 92 94 96 97 98 96 90 77 57 38 27 24 25 27 26 25 25 25 27 34 45 55
16 17 19 19 18 16 13 11 10 11 11 12 14 17 19 21 25 30 32 36 41 50 59 67 73 79 84 88 90 90 90 91 93 94 93 90 89 90 93 97 99 99 98 97 98 100 101 101 99 98 99 99 98 98 97 96 94 94 93 91 90 90 90 91 92 94 93 85 71 55 39 27 22 23 24 25 25 24 24 24 26 32 42 53 58
16 16 17 18 17 16 14 12 11 11 12 12 13 14 15 17 21 27 32 34 37 43 51 60 69 76 82 86 90 91 92 92 92 93 94 93 90 89 89 92 96 98 98 98 98 98 99 101 101 100 101 101 101 101 99 97 96 95 94 93 93 91 91 92 91 83 69 51 34 24 20 20 21 23 23 23 24 23 23 25 30 39 49 56 59
16 16 16 16 16 15 15 13 12 12 13 14 14 14 14 15 19 24 30 34 37 41 45 51 61 70 77 83 88 91 93 93 92 91 92 93 93 91 89 88 91 95 97 98 99 98 99 100 100 101 101 101 101 101 101 99 98 97 95 93 91 91 94 91 77 54 34 22 17 18 19 19 20 21 22 23 23 22 24 29 35 44 54 58 58
15 16 16 16 16 16 15 14 14 14 14 14 15 15 14 15 17 22 27 32 36 39 41 44 51 59 68 76 83 89 93 95 93 91 92 92 93 92 91 89 89 91 94 97 99 98 98 99 99 100 101 101 100 100 101 100 100 99 98 96 96 95 91 74 49 28 19 18 18 18 18 18 20 22 22 22 23 23 26 32 40 48 55 57 56
14 15 16 16 16 16 16 15 15 15 15 15 15 15 15 15 17 20 25 30 35 39 40 42 45 49 56 65 74 83 90 94 94 93 93 92 92 93 92 91 90 90 90 93 95 97 97 97 97 98 99 100 100 100 100 101 101 99 96 95 94 88 71 48 28 20 21 23 21 19 19 19 21 22 22 22 23 23 27 35 44 52 55 55 54
13 13 14 14 14 15 15 16 15 15 15 15 15 15 15 15 17 20 24 29 34 38 41 43 44 46 49 55 63 72 83 90 93 94 94 93 93 93 93 93 93 92 91 91 92 93 94 95 95 95 96 97 99 101 100 100 101 97 90 83 74 60 42 28 23 24 27 28 25 22 20 19 21 22 22 22 22 24 30 39 47 52 55 54 54
13 12 12 13 13 13 14 15 15 15 15 15 15 15 16 16 18 21 25 31 35 39 41 43 44 45 47 50 55 63 73 83 89 93 95 96 95 94 93 93 93 93 93 93 92 91 92 93 92 92 93 94 97 100 100 100 101 99 93 85 75 61 48 41 40 41 42 39 32 23 19 20 22 22 22 22 23 25 32 41 48 52 53 53 54
Wind_Speed
18 17 17 15 15 15 14 13 12 11 11 11 11 11 11 11 11 11 11 12 13 13 14 14 15 17 18 19 20 22 23 24 24 25 26 28 29 30 31 32 34 36 36 38 39 40 41 42 43 43 43 44 44 44 45 45 46 46 45 45 44 44 42 42 45 49 47 44 44 43 41 39 37 35 33 32 30 29 30 30 29 29 29 30 30
18 18 17 16 15 15 14 13 12 11 10 10 10 10 10 11 11 12 12 12 13 13 14 15 15 16 17 18 19 21 22 23 24 25 26 27 28 29 30 31 33 34 35 36 37 38 39 40 41 40 40 41 42 42 43 44 45 46 46 47 48 48 47 46 47 49 48 46 45 45 44 43 42 40 37 36 34 33 32 33 32 31 31 32 32
19 18 18 17 16 16 15 15 14 13 12 11 11 11 10 11 11 12 13 13 13 13 14 15 15 16 17 18 19 20 21 22 23 25 25 26 27 28 29 30 32 33 34 35 35 35 37 38 39 38 37 39 40 40 41 42 43 44 45 46 48 48 49 50 51 51 51 49 47 46 46 45 45 44 42 41 40 38 38 38 38 36 36 35 34
19 19 18 18 17 17 16 16 16 15 15 15 14 14 12 11 11 12 13 13 14 14 15 15 16 17 17 18 18 18 20 21 22 24 25 26 27 27 28 29 30 31 32 33 33 34 35 37 37 35 35 37 38 38 39 40 40 41 42 42 44 45 45 47 50 52 52 51 49 48 47 47 46 45 44 43 42 42 42 42 42 41 41 39 38
18 18 19 19 18 18 17 17 18 18 17 18 18 17 16 14 13 12 12 13 13 14 14 15 16 17 18 18 19 19 19 20 21 22 23 25 26 27 28 29 30 30 31 32 32 33 34 35 35 34 35 36 36 36 36 37 38 38 39 39 39 40 40 41 43 46 49 51 50 49 47 47 46 45 44 43 43 43 43 44 44 43 42 41 40
17 17 18 18 18 19 20 20 20 20 20 20 19 19 17 17 16 14 14 14 13 13 13 14 16 17 18 19 19 19 19 20 20 21 21 22 24 26 28 29 31 31 32 32 32 33 34 35 35 34 34 35 35 35 35 35 35 36 36 36 36 36 37 38 38 40 43 46 46 46 46 45 44 44 43 42 42 42 42 42 42 42 42 41 41
17 17 18 18 18 19 20 22 23 23 22 21 20 20 19 19 18 17 17 16 16 15 14 14 15 16 17 19 19 20 20 20 21 21 21 21 22 23 24 26 29 31 32 33 33 34 34 34 35 34 35 35 35 34 34 34 34 34 34 33 33 33 34 35 35 36 38 40 41 42 42 41 41 41 40 40 40 40 40 41 41 42 41 41 41
19 19 18 18 19 19 20 21 22 23 22 21 20 20 20 20 20 20 20 19 19 18 18 17 17 16 16 17 18 19 20 21 21 22 22 21 22 22 23 24 26 28 30 31 32 33 34 34 35 35 35 35 35 34 34 33 33 33 33 32 32 32 33 33 33 34 36 37 38 38 38 38 39 38 38 38 39 40 40 40 41 41 40 40 39
21 20 19 19 20 20 21 21 22 22 21 21 21 21 21 21 21 21 21 21 21 21 21 20 19 19 18 18 17 18 19 19 21 22 22 23 23 23 24 24 24 26 27 29 31 32 33 34 34 35 34 34 34 34 34 33 33 33 32 32 31 32 32 33 33 34 35 36 37 36 37 38 38 37 38 38 37 37 37 38 40 40 39 38 37
21 19 19 20 20 20 21 21 21 21 20 21 21 22 22 22 22 21 21 21 22 22 22 20 20 20 20 20 19 19 18 18 20 22 23 24 24 25 25 25 25 26 26 28 29 31 32 33 34 34 34 34 33 33 33 33 33 33 32 32 32 32 32 33 34 34 35 36 36 36 37 38 37 37 37 36 34 34 35 36 37 37 37 38 37
20 19 20 21 21 20 20 20 20 21 22 23 23 23 23 22 21 20 20 20 21 21 21 20 19 18 17 18 19 19 20 20 21 22 23 24 25 26 26 26 26 27 27 27 28 29 30 32 33 33 34 34 34 33 33 33 33 33 33 33 32 32 32 33 34 34 34 35 35 35 36 37 36 35 34 34 32 32 33 33 34 34 36 37 37
20 20 22 22 22 21 21 20 21 23 23 24 23 22 21 20 19 18 17 18 18 18 18 18 17 16 15 15 16 18 19 21 22 23 24 24 25 26 27 27 26 27 26 26 27 28 29 31 32 33 33 33 33 33 33 33 33 33 33 33 33 32 33 33 34 34 34 35 35 34 35 35 34 33 33 32 31 30 30 30 30 31 33 35 36
21 22 23 23 23 23 23 23 24 24 23 22 20 19 18 18 17 16 16 15 15 14 14 14 14 13 13 14 16 18 19 20 22 24 25 25 25 26 27 26 26 25 25 25 25 27 28 30 31 32 32 33 33 33 33 32 33 33 33 33 33 33 34 34 34 33 33 34 35 34 33 32 33 32 31 29 29 28 28 28 28 28 30 32 32
22 24 24 25 25 25 25 25 24 23 21 20 19 18 17 17 17 16 16 15 14 13 12 12 12 12 13 15 17 19 20 20 22 23 24 25 26 26 26 26 26 25 24 24 24 25 26 28 30 30 31 32 32 32 32 32 32 33 33 33 34 34 34 34 34 33 33 33 34 34 31 31 32 31 29 28 28 27 26 25 24 23 25 28 29
23 25 25 26 26 26 26 25 23 22 21 19 19 18 17 16 16 16 16 16 15 14 12 12 12 13 14 17 19 20 20 20 21 21 23 24 25 26 26 27 27 26 24 24 24 25 25 27 28 29 29 30 31 31 31 31 31 31 32 33 33 33 34 34 33 33 32 33 33 32 30 30 30 30 29 29 28 27 25 22 19 19 21 24 27
24 25 26 27 27 27 27 26 24 22 21 20 18 17 16 15 15 16 16 16 16 15 13 13 13 14 16 18 20 20 20 19 19 20 20 22 23 24 26 26 27 27 26 25 25 25 25 26 27 28 28 28 29 29 29 29 30 31 31 32 32 33 34 33 32 32 32 31 30 29 29 29 29 29 29 29 28 26 23 21 19 18 20 23 25
25 26 26 27 27 27 28 27 25 23 22 21 18 16 15 15 15 16 17 17 17 16 15 14 15 16 18 19 21 21 20 19 18 18 19 20 21 22 24 25 26 26 25 24 25 25 25 25 26 26 26 26 26 26 26 27 28 29 30 31 32 33 33 32 32 31 30 29 28 28 28 28 28 28 28 28 28 25 23 23 21 20 21 23 24
25 26 26 26 27 28 27 27 25 24 22 21 18 17 16 16 16 17 17 18 17 16 16 15 16 17 19 19 20 20 19 18 17 17 17 18 19 20 22 23 24 24 23 23 23 24 24 25 24 24 24 24 24 24 23 24 25 27 28 29 31 32 31 31 30 28 27 27 27 28 28 28 28 28 27 27 26 25 24 23 21 21 22 23 22
25 25 25 26 26 26 26 26 25 23 22 20 19 18 18 18 18 17 17 17 17 16 16 16 17 17 18 18 18 18 18 17 16 16 16 16 17 18 19 21 22 22 22 21 22 23 23 23 23 22 22 21 21 21 21 22 23 25 26 28 30 30 29 27 27 26 26 26 26 26 26 26 26 27 26 25 24 23 22 21 20 20 21 20 19
24 24 24 24 25 25 25 24 23 22 21 20 19 19 19 19 19 19 19 18 17 16 16 16 16 16 16 17 16 16 16 15 14 15 16 15 15 16 17 18 19 20 20 20 21 22 22 22 21 20 18 18 18 19 19 20 22 23 25 27 28 26 24 23 24 25 25 25 25 25 25 24 23 24 24 23 23 22 21 21 20 20 19 18 18
23 23 24 24 24 23 23 22 21 21 20 20 19 19 20 20 20 20 20 20 18 17 15 14 14 14 14 15 16 15 15 14 14 14 14 14 14 15 15 16 17 19 20 19 20 21 20 20 19 17 16 15 15 16 18 19 20 21 23 24 24 22 21 22 23 24 24 24 24 23 23 22 21 22 23 22 21 20 21 21 20 19 19 18 18
22 23 23 23 23 22 22 21 20 20 19 19 19 19 19 19 19 20 20 19 19 17 16 15 14 13 13 14 15 15 14 15 14 13 13 14 14 14 15 15 16 18 19 19 19 19 19 18 17 16 14 14 14 15 16 18 19 21 21 21 21 20 21 23 23 23 23 23 22 22 22 21 20 21 22 22 19 19 20 21 20 20 19 18 18
22 22 23 22 22 22 22 21 20 20 19 19 19 19 19 19 19 20 20 19 19 18 17 17 17 16 15 14 14 15 14 14 14 14 13 13 13 13 14 14 15 17 18 19 19 18 17 17 16 14 13 13 13 14 16 17 19 21 21 20 19 20 21 22 22 22 22 21 21 22 21 20 20 21 23 22 19 17 19 20 20 19 18 18 17
22 22 22 21 22 22 21 21 20 20 19 19 19 19 20 20 20 20 20 20 20 20 19 20 20 20 18 16 15 15 15 14 14 14 13 13 13 13 13 14 14 15 17 18 18 18 17 15 14 13 13 13 13 14 15 17 19 20 20 19 18 19 20 22 21 21 20 20 21 20 19 19 19 20 22 20 17 16 17 19 19 18 18 18 18
22 21 21 21 21 21 21 21 21 20 20 20 20 20 20 20 21 21 22 22 22 22 21 21 21 21 21 20 19 17 16 15 14 14 13 13 13 13 13 13 14 14 15 15 16 17 16 14 13 13 12 12 13 14 16 17 19 19 19 18 18 18 20 20 20 19 19 19 19 18 18 17 16 16 17 16 16 16 17 18 18 18 18 18 18
21 21 21 21 21 21 21 21 22 21 20 20 20 20 20 21 21 22 22 22 22 22 22 22 22 21 21 22 22 21 19 17 15 14 14 13 13 13 13 13 13 13 13 13 14 15 15 13 13 13 12 12 13 14 15 16 17 17 17 17 17 18 19 19 19 18 18 17 16 15 14 13 12 12 14 15 16 17 17 17 17 17 17 17 17
21 21 21 22 22 22 22 22 22 22 21 21 21 20 20 21 21 22 22 23 22 22 22 21 22 22 22 22 23 23 22 20 18 16 15 14 13 12 12 12 13 13 12 11 12 13 13 12 12 13 12 12 12 12 13 14 14 15 15 15 16 17 18 18 18 17 15 14 13 12 10 10 11 13 14 16 16 16 16 16 16 15 15 16 17
21 21 21 21 21 21 22 22 22 22 22 22 22 22 22 22 21 21 21 22 23 23 23 22 21 21 21 22 24 24 23 22 21 19 18 16 15 13 12 12 12 12 11 10 10 11 11 11 12 12 12 12 11 11 11 11 12 13 13 14 14 15 16 16 16 15 13 11 10 9 10 11 13 14 15 16 15 15 15 15 14 15 15 16 17
21 21 21 21 21 21 22 23 23 23 22 22 21 21 22 22 22 21 20 20 20 21 21 21 21 20 20 20 22 23 24 23 22 21 19 17 16 15 13 12 12 11 10 9 9 10 11 11 12 12 12 12 11 10 9 9 10 11 12 12 13 14 14 15 15 13 11 10 10 10 12 13 14 14 15 15 14 14 14 14 15 16 16 17 17
21 21 22 22 22 22 23 23 23 23 24 23 22 20 19 19 20 20 20 19 18 18 18 19 19 19 18 18 18 19 21 22 22 20 18 17 16 15 13 12 11 11 10 8 8 9 10 10 11 11 11 11 11 9 8 8 8 9 11 11 11 12 13 13 13 12 11 10 10 11 13 14 14 14 14 14 14 14 14 14 15 16 16 16 16
20 21 22 22 23 23 23 23 23 23 23 24 24 24 23 22 21 20 20 19 19 18 18 18 18 17 17 17 16 16 18 19 20 19 18 16 15 13 12 11 10 9 9 8 7 7 7 9 10 10 10 10 10 9 7 7 7 8 9 10 10 11 11 11 11 11 10 10 11 12 14 14 14 14 13 13 13 13 14 15 15 15 15 15 15
20 20 21 22 22 23 23 23 23 23 23 24 25 27 28 28 27 25 23 21 20 19 19 19 19 18 16 15 15 16 18 18 18 18 17 16 14 12 11 10 9 8 7 6 5 4 5 7 8 9 10 9 9 8 7 6 6 7 7 8 9 9 9 9 9 10 10 11 12 13 13 14 14 13 13 13 13 14 14 14 14 14 14 15 15
19 19 20 21 21 22 22 22 22 23 23 25 26 28 29 30 29 28 27 25 23 21 20 19 20 20 18 15 14 16 17 17 17 17 16 15 13 12 11 9 8 6 4 4 4 4 4 6 7 8 8 8 7 6 6 5 5 5 6 6 6 6 6 7 8 9 10 11 11 13 13 13 13 13 13 13 13 13 13 13 13 13 14 14 14
18 18 19 20 20 21 22 22 22 23 23 24 26 27 28 28 29 29 29 28 25 23 22 21 20 20 19 17 15 15 16 17 17 15 14 14 14 12 10 8 6 4 3 3 4 4 4 5 6 6 6 6 6 5 4 4 4 4 4 3 3 3 4 6 7 8 10 10 11 12 12 12 12 12 12 12 12 12 12 12 12 13 14 15 15
16 17 17 18 19 20 21 21 22 23 24 24 26 27 27 27 27 28 28 28 27 27 25 24 22 21 20 19 17 15 15 17 17 14 12 13 14 12 10 7 5 3 3 4 6 6 5 5 6 6 6 5 5 4 4 3 3 2 2 1 2 3 4 6 7 8 9 10 11 11 11 11 11 11 11 11 11 12 11 11 12 13 14 15 15
15 15 16 17 18 19 20 21 22 23 23 24 25 26 26 26 27 27 27 27 27 27 27 26 24 22 19 18 18 16 14 16 17 14 11 12 13 13 10 7 5 3 3 5 7 8 7 7 7 6 5 5 5 4 4 3 2 2 2 3 4 5 6 7 8 9 9 10 10 10 10 10 10 10 10 11 11 11 11 12 13 14 14 15 15
14 15 15 16 17 18 19 20 21 22 23 24 25 25 25 26 26 26 27 27 27 27 27 26 26 25 22 19 18 17 15 15 15 13 10 11 13 13 11 8 6 4 4 6 8 9 8 7 7 7 5 5 5 4 3 2 2 2 3 3 5 6 7 8 9 10 10 10 10 10 9 9 9 10 11 11 11 12 12 13 13 14 14 15 16
14 14 15 16 17 18 18 19 20 21 22 23 24 24 25 25 26 26 27 27 27 28 28 27 26 26 25 22 20 19 17 15 14 12 11 12 13 13 12 10 7 5 5 5 7 8 7 6 7 7 7 5 4 3 1 1 2 3 4 5 5 7 8 9 9 9 9 9 8 8 8 8 9 10 11 12 12 12 12 13 13 14 15 15 16
13 14 15 15 16 17 18 19 20 21 22 23 23 24 25 25 26 27 27 28 28 28 28 27 26 24 24 23 22 20 19 17 16 14 13 14 14 13 12 11 9 7 6 5 6 7 6 6 7 8 8 7 4 3 2 1 3 4 5 6 6 7 7 8 8 8 8 7 7 7 8 8 9 11 12 12 12 12 12 13 13 14 15 16 16
13 14 14 15 15 16 17 18 19 20 21 22 23 24 25 25 26 27 27 28 29 28 28 27 25 24 22 22 21 20 19 18 16 15 14 14 15 14 13 12 11 9 8 6 6 6 5 6 7 8 8 7 5 3 3 3 4 5 6 6 7 7 8 8 8 8 7 7 8 8 8 9 10 11 12 12 11 12 13 13 14 15 16 16 17
13 14 14 15 15 16 17 18 19 20 21 22 23 24 25 25 25 26 26 27 28 28 28 27 25 23 21 20 19 17 17 16 15 14 14 14 14 14 13 12 11 9 8 7 7 5 4 4 5 5 6 5 4 3 3 3 4 5 6 7 7 7 8 8 8 8 8 8 8 8 9 10 11 12 11 11 12 12 13 13 14 15 16 17 18
14 14 14 15 15 16 17 18 19 20 21 22 23 24 24 25 25 26 26 26 27 28 28 27 26 23 21 20 18 16 15 14 14 14 13 13 13 12 12 11 10 8 8 7 7 5 4 2 2 3 3 3 3 3 4 4 5 5 6 7 7 7 8 8 8 8 9 9 9 10 10 11 12 12 11 11 12 12 13 14 15 15 16 17 18
14 14 15 15 15 16 17 17 19 20 21 22 23 24 24 25 25 25 25 25 26 26 27 27 27 25 23 20 18 16 15 14 13 13 13 13 12 11 10 10 8 7 7 7 7 6 4 2 2 1 2 2 3 3 4 4 5 5 6 7 7 8 8 8 8 9 9 10 11 11 12 12 12 11 11 11 12 13 13 14 15 16 17 17 19
15 15 15 15 15 16 16 17 18 19 20 22 23 23 24 24 25 25 25 26 26 26 26 27 27 26 25 22 19 17 15 14 13 13 13 13 12 10 9 8 7 6 6 6 6 6 5 3 2 1 1 1 2 3 3 4 4 5 6 6 7 8 8 8 9 10 11 11 11 11 11 11 11 11 11 11 12 13 14 15 15 16 17 18 19
16 15 15 15 15 16 16 17 18 19 20 21 22 23 24 25 25 25 25 26 26 26 26 26 26 26 26 24 21 19 16 15 14 13 12 12 12 11 9 8 7 6 6 5 5 5 5 4 3 1 1 1 2 3 3 4 4 5 6 6 7 8 9 10 11 12 12 11 11 10 11 11 11 11 11 12 13 14 15 15 16 16 17 18 19
15 15 16 16 15 16 17 17 18 19 20 21 22 23 24 25 25 25 25 26 26 26 26 26 26 26 25 25 23 21 18 16 14 13 12 12 11 11 10 9 7 6 5 6 5 4 4 4 3 1 1 2 2 3 4 5 5 6 7 7 8 9 10 11 12 12 11 11 11 11 11 11 11 11 12 13 14 15 15 15 16 17 17 18 19
14 15 16 16 16 16 17 18 18 19 20 21 22 23 24 25 25 25 25 25 25 26 26 26 26 26 25 25 24 22 20 18 15 14 13 12 11 10 10 10 8 7 5 5 6 5 4 4 3 2 2 3 3 4 5 5 6 7 8 9 10 11 12 12 12 11 11 11 11 11 12 12 12 13 13 14 14 15 15 15 16 17 17 19 20
14 14 15 16 16 17 18 18 19 20 20 21 22 22 23 24 25 25 25 25 25 25 25 25 25 25 25 25 24 23 21 20 17 15 13 12 11 10 10 10 10 9 7 6 6 6 6 5 5 5 4 4 5 5 6 7 8 9 9 10 11 12 12 13 12 11 11 12 12 12 13 13 13 13 14 14 14 15 15 15 16 17 18 19 20
15 15 15 16 16 17 18 19 20 20 21 22 22 22 23 24 25 25 25 24 24 24 25 25 25 25 25 25 24 23 22 21 20 18 15 13 12 11 10 9 9 10 10 9 8 7 7 7 7 7 7 7 7 7 8 8 9 10 10 10 11 12 13 13 13 13 13 13 13 13 14 14 14 14 14 14 15 15 15 16 16 17 18 19 20
15 15 16 16 17 17 18 19 20 21 21 22 22 22 23 23 24 24 25 24 24 24 24 24 24 25 25 25 25 24 22 22 21 20 18 16 14 12 12 11 10 10 11 11 11 10 9 9 9 9 10 10 9 9 9 10 10 11 11 12 12 13 13 14 15 15 15 15 15 15 15 15 15 15 15 15 15 16 16 16 17 18 18 19 20
15 15 16 16 17 18 19 19 20 21 21 21 22 23 23 23 23 24 24 24 23 23 23 24 24 24 25 25 25 24 23 22 21 20 20 18 17 15 14 13 12 11 11 12 12 13 12 12 12 11 12 12 12 12 12 12 12 13 13 14 14 15 15 16 16 17 18 18 17 17 16 16 16 15 15 16 16 17 17 17 18 18 19 19 20
Wind_Direction
4 3 4 5 3 2 0 355 350 344 339 332 327 325 319 314 308 300 294 287 281 276 272 267 263 259 256 253 252 252 251 250 249 249 249 248 248 249 249 249 251 252 252 252 252 253 254 254 255 255 256 256 257 257 257 257 256 255 253 252 250 249 250 252 254 258 260 260 261 263 263 263 264 263 263 262 259 256 254 253 251 249 249 249 251
0 0 1 2 2 3 2 358 355 350 345 338 327 320 313 311 309 305 302 295 289 284 278 274 269 264 261 257 254 252 252 252 252 252 252 252 252 252 251 251 251 251 252 252 253 253 254 255 255 256 256 256 257 257 257 257 256 256 254 252 251 250 250 251 253 256 259 259 260 261 261 262 262 261 260 259 258 257 256 256 255 253 253 254 255
356 356 357 357 357 357 355 354 353 349 348 348 341 329 316 308 304 301 300 299 296 293 287 282 277 272 269 265 261 257 254 253 252 253 254 254 255 255 255 255 255 255 255 255 255 255 256 257 257 257 257 257 258 258 258 258 257 256 255 254 253 253 252 252 252 253 256 258 259 259 260 261 261 261 261 260 259 257 256 256 255 255 255 256 256
352 351 351 352 349 348 347 346 345 343 342 344 342 337 326 315 309 301 297 294 292 290 290 289 285 282 278 276 273 268 265 262 259 257 256 255 255 255 256 256 256 257 257 257 257 256 257 258 258 258 258 258 258 258 258 258 258 258 258 257 256 256 256 255 254 254 256 258 259 259 260 261 262 262 261 260 259 257 256 256 255 255 256 256 255
348 348 348 348 345 344 344 342 340 338 337 335 334 332 327 320 317 311 302 297 291 285 284 284 283 283 282 280 279 277 275 273 270 268 266 264 263 261 260 259 259 258 258 258 257 256 257 258 258 259 258 258 259 259 259 260 260 260 260 260 259 259 259 257 257 257 257 258 260 261 261 261 262 261 260 259 258 257 256 255 255 255 255 254 254
349 349 347 347 346 346 345 343 340 336 333 331 329 327 323 318 315 310 304 301 297 291 285 280 278 278 278 279 279 278 277 275 273 272 271 270 269 268 266 264 263 262 261 261 260 259 258 258 259 259 259 259 260 261 261 262 262 262 262 262 262 261 260 259 258 258 258 259 260 261 261 261 261 260 259 259 258 257 257 256 255 255 254 253 252
348 346 343 342 343 343 342 341 339 336 332 330 327 322 318 313 310 307 303 300 298 294 289 283 278 275 275 275 276 276 275 274 274 273 273 273 272 271 269 267 266 265 263 263 262 261 261 261 260 259 259 260 262 263 263 263 264 264 264 264 263 261 260 259 257 257 257 258 259 260 261 261 261 260 260 259 257 256 255 255 254 254 253 252 252
340 339 336 336 338 338 338 336 334 332 330 329 327 322 317 311 306 303 301 299 296 291 288 285 282 280 277 275 273 273 274 274 275 276 275 274 273 271 270 268 267 266 264 263 262 261 262 261 261 260 260 261 262 263 265 265 265 265 265 265 263 261 261 260 259 258 258 258 259 261 263 263 262 262 262 258 256 255 256 255 254 254 254 253 253
338 336 332 336 340 339 337 333 329 326 324 325 325 322 319 316 311 307 303 299 296 291 288 285 284 283 280 279 276 274 274 275 276 277 276 274 272 271 270 268 267 266 264 263 261 260 261 261 261 261 261 261 262 262 263 264 264 265 265 264 263 262 261 260 260 260 260 261 262 263 263 263 263 264 263 262 261 262 261 256 254 255 255 255 254
340 336 335 340 340 337 336 332 328 325 322 321 319 317 316 314 312 310 306 302 299 295 293 290 286 283 280 279 278 275 274 273 272 272 273 273 273 272 272 271 269 267 265 263 261 260 260 260 261 262 261 261 260 260 261 262 263 264 264 263 262 261 260 260 260 260 261 261 263 263 264 264 266 266 266 267 268 266 262 258 256 256 254 253 253
341 338 338 339 336 335 337 333 327 325 323 319 317 316 315 314 313 311 307 303 300 298 299 297 295 291 285 280 277 273 271 269 267 267 268 269 271 271 272 272 272 270 268 266 265 263 261 260 260 260 260 260 260 259 259 260 261 261 261 261 261 261 260 260 260 261 261 262 263 264 265 267 269 269 268 270 270 267 263 261 258 255 252 252 252
341 339 340 339 337 337 337 333 328 326 324 321 320 321 321 321 320 317 312 308 305 303 303 301 299 299 294 289 284 277 272 268 264 264 264 266 268 269 269 269 270 271 271 271 270 268 265 262 260 259 259 259 259 258 257 257 257 257 258 258 259 259 259 259 260 260 261 263 264 264 266 269 270 269 269 270 270 269 266 262 258 255 252 251 252
343 344 344 342 340 339 337 335 334 332 329 328 328 329 330 329 328 326 324 321 316 312 307 301 300 300 298 294 287 281 278 274 270 268 265 264 265 266 267 266 266 268 271 272 271 269 267 266 263 261 260 259 258 257 256 255 254 254 254 255 255 256 258 258 259 259 260 262 263 264 267 269 269 270 270 270 269 268 266 263 259 255 252 251 252
348 348 347 345 345 343 340 340 339 337 336 337 337 338 337 336 334 334 334 333 330 326 316 306 302 300 299 295 289 286 286 284 280 276 272 269 267 267 268 267 266 267 268 269 269 268 267 265 265 263 262 260 259 257 256 255 253 253 253 253 254 255 256 257 258 259 260 260 262 265 267 268 268 269 269 268 266 265 265 264 263 259 256 254 253
352 351 350 349 348 345 344 344 345 344 344 343 343 344 343 341 340 340 341 341 340 337 329 316 307 303 302 299 296 296 297 294 289 284 278 274 270 269 270 270 269 268 267 267 267 266 265 264 263 263 262 261 260 258 257 255 254 253 252 252 254 255 255 257 258 259 259 260 262 265 267 267 267 267 267 265 264 263 263 263 261 258 256 254 251
356 355 354 352 350 348 348 349 350 350 347 346 346 346 346 346 344 342 342 340 338 336 333 325 318 312 309 306 305 304 304 302 297 291 284 277 272 270 271 271 272 271 269 267 265 264 264 263 263 263 262 261 260 259 258 256 254 253 253 253 253 254 255 256 257 257 258 260 262 263 264 264 264 264 264 262 261 259 258 255 248 244 244 245 246
359 358 356 355 353 353 353 352 352 351 348 346 346 345 346 346 343 341 338 336 335 333 331 327 321 316 313 312 311 310 309 308 303 297 290 284 278 275 272 272 272 272 271 268 266 265 264 263 263 263 262 261 260 259 257 255 254 253 253 253 253 254 256 256 256 257 259 260 261 260 260 260 260 260 259 258 257 254 250 246 241 236 235 237 240
2 1 358 358 358 357 356 354 353 350 347 344 342 341 343 342 340 339 336 335 334 331 325 320 316 315 314 313 312 311 310 310 306 300 295 289 285 282 279 276 274 272 270 267 265 265 264 264 264 264 263 263 262 260 257 254 251 250 250 251 252 253 255 256 257 259 259 259 259 258 258 259 259 259 256 253 252 250 245 243 239 235 234 235 237
4 3 1 1 0 359 358 356 353 350 347 344 340 337 338 337 336 338 337 335 333 329 324 321 320 319 316 312 310 309 308 308 306 301 297 293 289 287 283 281 279 277 274 270 267 264 262 263 264 264 264 264 263 263 261 256 252 249 248 249 250 251 254 256 258 259 257 257 257 258 258 258 258 258 255 250 248 246 242 238 234 231 232 233 235
7 5 3 3 3 1 0 358 355 351 347 345 341 337 334 333 334 336 336 334 331 328 326 326 326 326 322 316 312 310 308 309 308 303 300 296 292 289 285 282 280 278 276 272 269 266 264 264 265 265 266 265 262 261 260 256 253 250 248 249 251 254 256 256 256 256 255 255 255 255 256 255 253 253 251 247 245 241 234 230 227 225 227 229 231
8 7 6 5 4 2 2 1 357 353 349 346 342 338 334 334 335 336 336 334 332 329 328 329 329 330 328 323 318 313 311 311 311 308 305 302 299 294 289 284 280 277 275 272 268 267 267 268 269 270 270 266 260 255 253 252 252 250 249 251 253 256 255 253 252 252 252 252 253 253 252 251 248 246 245 245 243 236 230 227 224 223 224 226 231
9 8 8 6 5 4 4 3 360 356 351 346 342 339 337 337 337 337 337 336 333 331 333 335 336 336 337 332 325 319 314 313 312 311 310 308 306 302 296 290 284 279 276 273 270 269 270 272 274 274 272 266 258 251 248 249 251 251 251 252 253 253 252 251 250 251 251 252 252 251 250 246 242 239 241 243 240 233 228 225 223 222 224 227 233
9 9 9 7 7 6 5 5 3 359 355 350 346 342 341 341 340 340 341 339 336 337 340 342 341 341 343 341 335 329 322 317 315 313 313 313 311 307 302 296 290 283 278 275 273 271 272 274 275 273 269 264 257 250 246 247 250 252 254 254 253 252 251 251 250 251 252 252 250 249 248 245 239 235 237 241 239 230 226 224 223 223 225 228 235
11 11 10 8 9 9 8 8 6 3 359 354 350 348 346 345 344 344 344 343 342 344 346 344 343 342 343 343 343 340 333 326 320 316 315 315 312 309 305 300 294 288 282 279 276 273 272 274 276 273 267 262 256 250 247 246 249 252 254 255 254 252 251 251 251 251 252 251 250 250 249 246 241 237 237 240 236 227 222 221 220 222 224 228 234
14 13 11 12 13 13 12 12 11 9 4 358 355 353 351 350 349 347 347 346 345 346 346 345 342 341 340 341 342 343 340 332 325 320 317 316 314 311 307 303 299 294 287 283 280 276 273 274 277 276 270 263 258 253 251 250 251 254 256 256 254 251 250 252 252 252 253 253 252 252 250 248 244 238 235 232 226 219 217 218 219 220 224 229 235
17 16 15 15 15 16 17 17 15 12 8 3 0 358 356 355 353 349 347 347 346 345 344 344 341 339 339 339 339 341 340 336 330 326 320 317 316 314 310 306 304 301 294 287 282 278 274 272 275 277 274 268 262 258 257 257 257 258 258 255 252 250 250 252 254 254 256 255 253 251 248 243 235 225 218 214 211 210 212 216 219 222 227 233 239
20 20 19 18 16 17 19 20 18 14 10 6 4 3 2 0 356 351 348 347 345 344 343 343 341 338 338 339 339 340 341 340 337 333 327 322 319 316 314 312 310 306 301 292 281 277 275 273 275 279 279 276 273 269 268 265 261 259 256 253 250 249 250 252 255 256 255 252 248 244 235 223 212 205 203 204 203 205 210 215 220 225 232 239 243
21 21 21 19 18 17 18 18 17 14 11 9 6 4 3 2 360 356 351 347 344 341 340 340 339 336 336 338 338 339 342 343 343 340 336 330 324 319 317 318 316 313 309 301 286 277 274 274 276 280 284 287 287 284 280 274 265 260 257 253 250 250 250 251 252 253 249 241 233 223 210 202 198 196 198 200 200 203 209 214 221 228 235 241 247
21 21 21 19 18 17 16 15 13 12 12 12 11 8 5 2 360 359 355 349 343 338 334 333 333 332 333 336 337 338 340 342 343 342 338 333 327 322 320 321 320 318 315 307 291 277 273 273 275 280 286 292 296 294 286 276 266 261 259 256 252 250 251 250 250 248 240 225 213 203 197 195 194 194 196 197 198 203 210 216 224 231 236 244 251
20 20 21 20 18 17 17 15 14 13 13 14 16 17 15 9 4 1 357 352 346 338 332 328 326 326 327 331 335 337 337 338 338 338 336 332 327 322 320 319 318 318 316 309 292 276 271 273 276 281 287 292 297 297 288 275 268 265 263 261 257 253 250 249 247 241 228 214 205 197 193 193 192 193 195 195 197 205 213 220 228 234 240 248 255
18 19 20 20 18 18 17 16 16 15 14 14 15 17 20 20 16 9 3 357 351 345 337 331 328 326 326 328 332 335 335 335 337 337 336 333 328 322 319 317 315 314 313 307 294 278 272 276 280 285 290 295 298 299 291 278 270 268 266 266 262 256 251 247 242 235 222 208 200 196 195 193 192 192 194 196 201 210 218 225 232 239 246 254 260
15 17 19 18 18 18 17 16 15 15 15 15 14 14 16 17 16 12 8 4 359 354 347 340 335 333 332 331 333 336 337 338 339 340 339 336 331 327 325 320 316 312 306 301 301 296 286 286 290 292 296 299 301 298 289 278 272 269 268 268 266 261 254 245 237 229 219 206 198 196 196 194 193 194 196 200 207 216 223 232 240 247 254 260 266
11 14 17 18 17 17 17 16 16 15 15 15 15 14 13 12 10 9 9 7 5 0 354 348 343 339 337 335 334 337 340 341 342 343 343 341 337 334 332 328 322 316 307 307 319 321 310 303 301 299 301 304 304 297 287 279 277 275 273 270 268 262 251 238 227 218 211 204 198 195 195 194 196 199 203 208 216 224 232 241 248 255 262 267 271
8 10 14 16 16 16 16 16 15 15 15 15 15 15 13 9 6 5 5 5 4 2 358 355 351 345 340 337 337 340 344 344 344 345 347 347 344 341 338 337 336 336 340 336 331 322 313 311 311 309 309 309 304 298 292 284 278 279 277 270 260 244 226 217 210 205 201 199 196 195 196 198 201 206 213 220 228 235 241 248 256 262 268 272 274
4 7 11 13 15 15 16 16 16 15 15 15 16 15 13 10 7 5 3 1 360 359 359 358 357 352 345 340 340 343 347 347 344 344 349 352 350 346 344 346 354 0 349 333 328 325 319 312 312 314 313 309 304 299 293 281 267 260 256 234 207 195 194 194 193 193 194 195 195 195 200 205 210 217 226 233 240 247 252 259 265 268 270 274 278
1 4 7 11 13 15 15 15 15 15 14 15 15 13 11 10 8 6 5 2 359 359 359 358 357 356 352 345 341 342 348 350 347 345 349 355 354 351 348 348 354 351 308 294 306 316 316 310 312 316 313 304 299 294 283 270 247 219 202 191 183 178 176 177 181 186 190 193 195 199 206 213 221 230 238 244 250 256 262 265 267 270 274 277 280
357 360 3 8 11 13 14 14 14 14 13 13 13 12 11 10 8 7 5 3 2 1 360 358 357 357 356 353 349 347 352 356 353 348 350 356 357 355 352 348 344 332 303 283 292 304 308 305 308 313 309 303 303 300 282 245 208 192 185 182 177 173 170 172 178 184 188 192 198 205 211 218 228 237 245 252 256 259 263 265 268 271 275 277 280
352 355 359 4 7 9 11 12 13 12 11 10 10 9 9 9 8 7 6 4 4 3 1 0 359 357 355 354 352 351 354 358 358 356 355 356 357 356 354 349 340 328 317 305 299 300 297 290 291 295 296 297 304 310 303 192 178 181 174 167 166 169 174 177 181 185 190 193 200 208 215 222 232 243 250 256 259 261 264 267 270 272 274 277 281
345 349 353 358 3 5 6 8 10 10 9 8 7 6 7 7 8 7 6 6 6 4 2 2 1 358 354 352 351 351 354 357 359 359 356 353 353 354 354 352 345 330 321 316 309 303 290 272 265 276 286 290 290 288 282 208 185 182 174 166 164 167 174 181 185 188 192 194 201 212 222 231 242 251 256 260 264 267 268 270 272 274 278 282 286
337 342 347 352 358 360 1 4 7 7 7 6 5 5 4 5 6 6 6 6 6 4 3 2 2 359 356 353 350 350 351 353 355 355 351 347 347 349 353 355 348 336 326 319 313 307 290 263 249 257 272 280 272 255 244 211 190 187 179 172 170 171 176 184 189 191 195 202 210 222 235 244 251 256 259 264 268 270 269 270 274 277 282 286 288
332 336 340 346 353 355 356 359 3 4 4 4 3 3 3 3 4 5 5 6 5 3 2 2 2 0 357 353 351 349 347 347 349 351 349 346 343 343 347 352 349 342 340 336 328 318 302 272 249 247 256 265 257 238 224 206 195 190 184 179 179 180 185 192 197 201 208 217 226 237 247 253 257 260 263 266 267 268 269 272 276 280 284 287 289
328 331 335 341 347 350 352 355 359 1 1 1 1 1 2 2 2 2 4 5 4 3 1 1 1 2 360 356 352 349 346 346 348 348 347 346 343 341 344 349 349 347 350 351 346 336 319 290 258 237 231 232 228 216 205 200 197 193 191 192 192 191 195 200 206 212 220 227 236 245 250 255 258 261 263 264 265 267 271 276 280 283 286 288 290
324 327 330 335 341 346 348 351 354 356 356 357 358 359 359 359 359 360 2 4 4 2 1 360 360 1 1 359 355 352 348 348 350 349 347 345 343 340 341 346 351 353 351 352 353 347 334 311 286 255 219 213 218 216 210 206 202 199 202 205 204 203 206 208 210 217 225 231 238 244 249 253 257 260 260 262 265 269 274 279 283 285 288 290 293
321 323 326 330 336 341 342 345 349 351 352 353 355 356 356 357 357 357 0 3 3 2 0 359 358 359 359 359 358 355 352 351 351 351 349 346 342 338 336 338 344 347 347 347 348 345 340 333 321 305 268 210 217 220 219 217 214 209 210 214 215 214 215 215 218 225 232 237 242 248 253 256 257 259 260 263 268 273 277 282 285 287 290 293 296
318 320 323 326 331 335 337 339 343 345 347 349 351 352 353 354 354 355 358 0 1 1 0 359 358 358 357 357 357 356 354 351 349 349 349 346 341 336 330 328 330 332 332 333 336 339 341 339 332 320 279 221 219 223 227 227 224 220 216 216 219 220 221 225 231 237 242 246 249 252 254 255 258 261 264 267 271 275 279 283 286 289 292 296 298
316 318 319 323 327 330 333 335 338 340 342 345 346 347 349 350 351 352 355 357 359 359 359 359 358 357 356 356 355 354 352 349 346 345 345 345 341 335 327 321 319 321 321 319 318 322 331 332 324 307 259 234 230 234 237 235 232 230 226 221 221 224 228 234 239 244 248 251 252 252 254 257 260 264 266 269 272 277 281 284 287 291 294 297 299
312 315 316 320 324 328 330 332 334 336 338 340 341 343 345 346 347 349 352 354 356 356 357 358 358 356 355 355 354 352 350 347 344 342 340 338 337 335 327 318 311 308 307 306 304 303 304 302 290 271 257 250 246 243 243 239 236 236 235 233 232 233 234 237 240 243 248 254 258 259 260 261 262 264 267 271 275 278 282 286 289 292 296 298 300
308 311 313 317 322 325 327 329 330 332 333 335 337 340 342 343 344 346 348 350 352 353 354 356 356 355 354 354 353 352 350 346 343 342 338 333 330 329 325 317 309 302 294 288 287 288 284 279 272 263 257 257 256 253 251 247 243 241 240 239 240 240 239 239 239 240 246 255 261 264 265 265 265 267 270 273 277 280 284 287 290 294 297 299 302
306 308 311 316 319 322 324 325 326 328 330 331 334 337 340 340 341 342 344 347 349 350 351 353 354 354 354 353 352 351 351 348 346 344 340 335 330 326 322 316 308 300 294 286 279 274 271 269 267 263 259 259 259 256 254 252 248 246 243 239 238 240 242 243 244 245 248 254 261 265 268 269 269 269 272 275 278 281 284 287 290 294 297 300 303
307 309 312 314 317 320 321 322 323 325 327 329 332 335 338 339 339 340 341 343 345 347 348 350 351 352 352 352 351 351 351 351 348 345 342 337 332 326 320 314 306 299 293 287 281 275 269 264 261 261 261 261 260 257 256 254 251 248 246 242 238 237 239 244 249 253 256 258 261 263 266 268 269 271 275 277 279 282 286 288 291 295 298 301 304
309 311 313 315 317 319 320 320 321 323 325 328 331 334 336 337 338 338 339 340 342 345 347 347 349 350 350 349 349 349 350 350 349 347 343 339 334 327 320 313 305 298 291 286 282 279 275 268 263 259 258 259 258 256 255 254 254 252 250 247 245 244 244 246 250 256 260 263 264 264 265 267 270 273 277 280 282 285 288 290 293 297 300 303 305